TimeEST,TemperatureF,Dew PointF,Humidity,Sea Level PressureIn,VisibilityMPH,Wind Direction,Wind SpeedMPH,Gust SpeedMPH,PrecipitationIn,Events,Conditions,WindDirDegrees,DateUTC
12:27 AM,35.6,33.8,93,29.90,5.0,East,4.6,-,0.01,Rain,Light Rain,100,2000-11-30 05:27:00
12:35 AM,35.6,33.8,93,29.89,5.0,ENE,3.5,-,0.01,Rain,Light Rain,70,2000-11-30 05:35:00
12:42 AM,35.6,33.8,93,29.89,5.0,ENE,4.6,-,0.01,Rain,Light Rain,70,2000-11-30 05:42:00
12:53 AM,35.1,34.0,96,29.89,6.0,East,3.5,-,0.01,Rain,Light Rain,80,2000-11-30 05:53:00
1:53 AM,34.0,33.1,96,29.88,3.0,East,3.5,-,0.03,Snow,Light Snow,80,2000-11-30 06:53:00
2:08 AM,33.8,33.8,100,29.86,2.5,Calm,Calm,-,0.00,Snow,Light Snow,0,2000-11-30 07:08:00
2:15 AM,33.8,33.8,100,29.86,3.0,Calm,Calm,-,0.00,Snow,Light Snow,0,2000-11-30 07:15:00
2:33 AM,33.8,33.8,100,29.85,2.0,Calm,Calm,-,0.01,Snow,Light Snow,0,2000-11-30 07:33:00
2:41 AM,33.8,32.0,93,29.85,1.5,Calm,Calm,-,0.01,Snow,Light Snow,0,2000-11-30 07:41:00
2:53 AM,33.1,32.0,96,29.86,1.2,Calm,Calm,-,0.01,Snow,Light Snow,0,2000-11-30 07:53:00
3:16 AM,33.8,32.0,93,29.83,2.5,Calm,Calm,-,0.00,Snow,Light Snow,0,2000-11-30 08:16:00
3:26 AM,33.8,32.0,93,29.83,3.0,NE,3.5,-,0.00,,Overcast,40,2000-11-30 08:26:00
3:53 AM,33.1,32.0,96,29.83,5.0,Calm,Calm,-,0.00,,Overcast,0,2000-11-30 08:53:00
4:53 AM,34.0,33.1,96,29.80,6.0,Calm,Calm,-,0.02,,Overcast,0,2000-11-30 09:53:00
5:36 AM,33.8,33.8,100,29.79,7.0,Calm,Calm,-,0.01,,Overcast,0,2000-11-30 10:36:00
5:53 AM,34.0,33.1,96,29.80,9.0,NNE,3.5,-,0.01,,Overcast,30,2000-11-30 10:53:00
6:53 AM,35.1,34.0,96,29.80,9.0,North,3.5,-,N/A,,Overcast,360,2000-11-30 11:53:00
7:53 AM,35.1,34.0,96,29.81,9.0,North,4.6,-,0.00,,Overcast,350,2000-11-30 12:53:00
8:53 AM,35.1,34.0,96,29.83,7.0,NW,4.6,-,0.01,Rain,Light Rain,320,2000-11-30 13:53:00
9:25 AM,35.6,33.8,93,29.84,9.0,NNW,5.8,-,0.01,Rain,Light Rain,340,2000-11-30 14:25:00
9:35 AM,35.6,33.8,93,29.84,10.0,NW,6.9,-,0.01,Rain,Light Rain,320,2000-11-30 14:35:00
9:53 AM,36.0,34.0,93,29.86,10.0,NW,5.8,-,0.01,Rain,Light Rain,320,2000-11-30 14:53:00
10:53 AM,37.0,35.1,93,29.86,10.0,NW,9.2,-,0.00,,Overcast,320,2000-11-30 15:53:00
11:11 AM,37.4,33.8,87,29.85,10.0,NNW,11.5,-,N/A,,Overcast,330,2000-11-30 16:11:00
11:33 AM,37.4,33.8,87,29.85,10.0,NW,5.8,-,N/A,,Overcast,320,2000-11-30 16:33:00
11:53 AM,37.9,34.0,86,29.87,10.0,NW,10.4,-,N/A,,Overcast,320,2000-11-30 16:53:00
12:53 PM,37.9,33.1,83,29.88,10.0,NNW,10.4,16.1,N/A,,Overcast,330,2000-11-30 17:53:00
1:53 PM,39.0,32.0,76,29.89,10.0,NW,9.2,17.3,N/A,,Mostly Cloudy,310,2000-11-30 18:53:00
2:53 PM,39.0,33.1,79,29.92,10.0,NW,10.4,-,0.00,Rain,Light Rain,310,2000-11-30 19:53:00
3:11 PM,35.6,33.8,93,29.91,3.0,NNW,10.4,21.9,0.01,Rain,Light Rain,330,2000-11-30 20:11:00
3:28 PM,37.4,33.8,87,29.92,10.0,NNW,9.2,-,0.01,,Overcast,330,2000-11-30 20:28:00
3:53 PM,37.0,33.1,86,29.95,10.0,Variable,5.8,-,0.01,Rain,Light Rain,0,2000-11-30 20:53:00
4:00 PM,37.4,33.8,87,29.94,10.0,WNW,5.8,-,0.00,,Mostly Cloudy,300,2000-11-30 21:00:00
4:53 PM,37.0,33.1,86,29.99,10.0,Variable,3.5,-,0.00,,Overcast,0,2000-11-30 21:53:00
5:53 PM,37.0,25.0,62,30.02,10.0,NW,9.2,-,N/A,,Overcast,310,2000-11-30 22:53:00
6:53 PM,35.1,24.1,64,30.04,10.0,NW,4.6,-,N/A,,Clear,310,2000-11-30 23:53:00
7:53 PM,33.1,25.0,72,30.06,10.0,West,3.5,-,N/A,,Scattered Clouds,270,2000-12-01 00:53:00
8:53 PM,34.0,24.1,67,30.07,10.0,WNW,4.6,-,N/A,,Scattered Clouds,290,2000-12-01 01:53:00
9:53 PM,33.1,23.0,66,30.08,10.0,West,4.6,-,N/A,,Partly Cloudy,270,2000-12-01 02:53:00
10:53 PM,33.1,23.0,66,30.09,10.0,WNW,5.8,-,N/A,,Clear,290,2000-12-01 03:53:00
11:53 PM,32.0,25.0,75,30.09,10.0,WSW,6.9,-,N/A,,Clear,250,2000-12-01 04:53:00